Willimantic, CT

3:03 PM EDT on July 26, 2017 (GMT -0400)
Windham

Weather History for KIJD - December, 2011

Change the Weather History Date:

Thursday, December 29, 2011

  Actual Average Record
Temperature  
Mean Temperature 26 °F -  
Max Temperature 32 °F 37 °F 61 °F (1984)
Min Temperature 21 °F 18 °F -3 °F (1993)
Degree Days  
Heating Degree Days 38    
Moisture  
Dew Point 7 °F    
Average Humidity 44    
Maximum Humidity 60    
Minimum Humidity 29    
Precipitation  
Precipitation 0.00 in - - ()
Sea Level Pressure  
Sea Level Pressure 29.94 in    
Wind  
Wind Speed 8 mph (WNW)    
Max Wind Speed 13 mph    
Max Gust Speed 24 mph    
Visibility 10 miles    
Events      
Averages and records for this station are not official NWS values.
T = Trace of Precipitation, MM = Missing Value Source: NWS Daily Summary

Daily Weather History Graph

Daily Weather History Graph

Search for Another Location

Airport or City:

Trip Planner

Search our weather history database for the weather conditions in past years. The results will help you decide how hot, cold, wet, or windy it might be!

Date:

Astronomy

Dec. 29, 2011 Rise Set
Actual Time 7:15 AM EST 4:26 PM EST
Civil Twilight 6:43 AM EST 4:57 PM EST
Nautical Twilight 6:08 AM EST 5:32 PM EST
Astronomical Twilight 5:35 AM EST 6:06 PM EST
Moon 10:03 AM EST (12/29) 10:05 PM EST (12/29)
Length of Visible Light 10h 13m
Length of Day
9h 10m
Waxing Crescent, 26% of the Moon is Illuminated
Dec 29
Waxing Crescent
Jan 1
First Quarter
Jan 9
Full
Jan 16
Last Quarter
Jan 23
New

Hourly Weather History & Observations

Time (EST) Temp. Windchill Dew Point Humidity Pressure Visibility Wind Dir Wind Speed Gust Speed Precip Events Conditions
12:52 AM 28.0 °F 18.1 °F 10.9 °F 49% 29.75 in 10.0 mi WNW 11.5 mph 20.7 mph N/A   Clear
1:52 AM 26.1 °F 16.2 °F 9.0 °F 49% 29.78 in 10.0 mi WNW 10.4 mph 24.2 mph N/A   Clear
2:52 AM 25.0 °F 14.2 °F 9.0 °F 51% 29.81 in 10.0 mi WNW 11.5 mph 18.4 mph N/A   Clear
3:52 AM 24.1 °F 17.0 °F 9.0 °F 53% 29.83 in 10.0 mi WNW 5.8 mph - N/A   Clear
4:52 AM 24.1 °F 15.2 °F 7.0 °F 48% 29.86 in 10.0 mi NW 8.1 mph 16.1 mph N/A   Clear
5:52 AM 23.0 °F 13.9 °F 5.0 °F 46% 29.88 in 10.0 mi WNW 8.1 mph - N/A   Clear
6:52 AM 21.9 °F 11.7 °F 3.9 °F 46% 29.92 in 10.0 mi WNW 9.2 mph 16.1 mph N/A   Clear
7:52 AM 21.9 °F 12.5 °F 3.9 °F 46% 29.96 in 10.0 mi WNW 8.1 mph 19.6 mph N/A   Clear
8:52 AM 23.0 °F 11.1 °F 3.9 °F 44% 29.98 in 10.0 mi NW 12.7 mph 19.6 mph N/A   Clear
12:52 PM 30.0 °F 24.1 °F 1.9 °F 30% 29.94 in 10.0 mi West 5.8 mph - N/A   Clear
1:52 PM 30.9 °F 24.3 °F 3.0 °F 31% 29.94 in 10.0 mi SW 6.9 mph - N/A   Clear
2:52 PM 32.0 °F 26.4 °F 3.0 °F 29% 29.96 in 10.0 mi West 5.8 mph - N/A   Clear
3:52 PM 30.9 °F 25.2 °F 5.0 °F 33% 29.98 in 10.0 mi West 5.8 mph - N/A   Clear
5:52 PM 28.0 °F - 8.1 °F 43% 30.00 in 10.0 mi Calm Calm - N/A   Clear
6:52 PM 28.9 °F - 8.1 °F 41% 30.01 in 10.0 mi Calm Calm - N/A   Clear
7:52 PM 28.9 °F - 9.0 °F 43% 30.03 in 10.0 mi Calm Calm - N/A   Overcast
8:52 PM 28.9 °F - 9.0 °F 43% 30.03 in 10.0 mi Calm Calm - N/A   Overcast
9:52 PM 28.0 °F - 14.0 °F 56% 30.05 in 10.0 mi Calm Calm - N/A   Overcast
10:52 PM 26.1 °F - 14.0 °F 60% 30.06 in 10.0 mi Calm Calm - N/A   Scattered Clouds